K7RHT Weather Reports


Display with metric or nautical units.
time (UTC)temp
F
wind
direction
speed
MPH
gust
MPH
rain 1hr
in
rain 24hr
in
rain mn
in
humidity
%
barometer
mb
20260906231550 83 0 0.0 4.0 0.00 0.00 0.00 62 1014.7
20260906230058 83 0 0.0 1.0 0.00 0.00 0.00 64 1014.7
20260906224555 82 0 0.0 4.0 0.00 0.00 0.00 66 1015.1
20260906223100 82 167 1.0 5.0 0.00 0.00 0.00 68 1015.4
20260906221550 80 165 2.0 9.0 0.00 0.00 0.00 71 1015.6
20260906220055 80 175 3.0 9.0 0.00 0.00 0.00 72 1015.8
20260906214601 81 123 6.0 10.0 0.00 0.00 0.00 69 1015.7
20260906213046 81 173 5.0 15.0 0.00 0.00 0.00 69 1015.9
20260906211558 81 129 6.0 11.0 0.00 0.00 0.00 69 1015.9
20260906210113 82 137 6.0 13.0 0.00 0.00 0.00 66 1016.0
20260906204602 85 171 5.0 13.0 0.00 0.00 0.00 60 1015.9
20260906203049 87 125 7.0 17.0 0.00 0.00 0.00 56 1015.8
20260906201553 90 99 3.0 10.0 0.00 0.00 0.00 52 1015.8
20260906200052 90 80 4.0 9.0 0.00 0.00 0.00 52 1015.7
20260906194559 89 142 4.0 11.0 0.00 0.00 0.00 52 1015.8
20260906193054 93 116 5.0 14.0 0.00 0.00 0.00 47 1015.7
20260906191605 97 92 4.0 11.0 0.00 0.00 0.00 42 1015.9
20260906190051 98 184 9.0 13.0 0.00 0.00 0.00 36 1016.0
20260906184553 97 161 5.0 11.0 0.00 0.00 0.00 38 1016.1
20260906183054 96 150 4.0 13.0 0.00 0.00 0.00 38 1016.2
20260906181557 95 189 3.0 10.0 0.00 0.00 0.00 41 1016.5
20260906180115 95 138 5.0 13.0 0.00 0.00 0.00 43 1016.7
20260906174602 94 142 4.0 10.0 0.00 0.00 0.00 43 1017.0
20260906173058 95 131 3.0 7.0 0.00 0.00 0.00 44 1017.2
20260906171547 94 142 4.0 7.0 0.00 0.00 0.00 44 1017.3
20260906170106 92 113 1.0 7.0 0.00 0.00 0.00 45 1017.6
20260906164553 92 129 3.0 8.0 0.00 0.00 0.00 49 1017.7
20260906163057 90 148 3.0 9.0 0.00 0.00 0.00 52 1017.7
20260906161556 89 140 3.0 8.0 0.00 0.00 0.00 54 1017.7
20260906160053 88 152 2.0 5.0 0.00 0.00 0.00 57 1017.6
20260906154556 87 136 3.0 9.0 0.00 0.00 0.00 57 1017.5
20260906153114 85 0 1.0 7.0 0.00 0.00 0.00 63 1017.3
20260906151601 84 161 3.0 9.0 0.00 0.00 0.00 65 1017.2
20260906150053 82 150 1.0 4.0 0.00 0.00 0.00 68 1017.3
20260906144559 82 146 2.0 7.0 0.00 0.00 0.00 69 1017.2
20260906143049 82 207 1.0 6.0 0.00 0.00 0.00 70 1017.2
20260906141555 80 174 4.0 7.0 0.00 0.00 0.00 72 1017.3
20260906140054 78 166 1.0 4.0 0.00 0.00 0.00 74 1017.1
20260906134610 77 158 0.0 2.0 0.00 0.00 0.00 76 1017.0
20260906133101 76 0 0.0 1.0 0.00 0.00 0.00 78 1016.8
20260906131548 73 0 0.0 0.0 0.00 0.00 0.00 81 1016.6
20260906130056 73 0 0.0 1.0 0.00 0.00 0.00 81 1016.3
20260906124550 72 0 0.0 0.0 0.00 0.00 0.00 82 1016.1
20260906123057 71 0 0.0 0.0 0.00 0.00 0.00 84 1016.0
20260906121546 71 0 0.0 0.0 0.00 0.00 0.00 83 1015.8
20260906120052 72 0 0.0 1.0 0.00 0.00 0.00 82 1015.7
20260906114547 72 0 0.0 3.0 0.00 0.00 0.00 81 1015.6
20260906113049 73 0 0.0 2.0 0.00 0.00 0.00 80 1015.2
20260906111558 74 158 0.0 2.0 0.00 0.00 0.00 78 1015.2
20260906110055 73 0 0.0 0.0 0.00 0.00 0.00 81 1015.1
20260906104552 73 0 0.0 0.0 0.00 0.00 0.00 82 1015.0
20260906103111 73 0 0.0 0.0 0.00 0.00 0.00 80 1015.1
20260906101557 73 0 0.0 0.0 0.00 0.00 0.00 81 1015.0
20260906100054 73 0 0.0 0.0 0.00 0.00 0.00 79 1014.9
20260906094548 73 0 0.0 0.0 0.00 0.00 0.00 80 1015.1
20260906093058 74 0 0.0 2.0 0.00 0.00 0.00 78 1015.2
20260906091550 74 0 0.0 2.0 0.00 0.00 0.00 78 1015.1
20260906090104 74 0 1.0 2.0 0.00 0.00 0.00 78 1015.2
20260906084558 75 158 1.0 2.0 0.00 0.00 0.00 76 1015.2
20260906083053 75 158 1.0 2.0 0.00 0.00 0.00 76 1015.2
20260906081600 75 0 1.0 5.0 0.00 0.00 0.00 75 1015.4
20260906080125 76 166 2.0 6.0 0.00 0.00 0.00 74 1015.4
20260906074608 76 144 2.0 6.0 0.00 0.00 0.00 73 1015.5
20260906073108 76 360 2.0 6.0 0.00 0.00 0.00 72 1015.9
20260906071558 77 125 2.0 7.0 0.00 0.00 0.00 71 1016.0
20260906070056 77 153 3.0 8.0 0.00 0.00 0.00 71 1016.0
20260906064549 78 160 3.0 9.0 0.00 0.00 0.00 70 1016.1
20260906063052 78 153 3.0 10.0 0.00 0.00 0.00 70 1016.1
20260906061547 78 136 5.0 11.0 0.00 0.00 0.00 69 1016.3
20260906060058 79 154 5.0 9.0 0.00 0.00 0.00 69 1016.4
20260906054549 79 124 4.0 7.0 0.00 0.00 0.00 67 1016.4
20260906053045 80 125 6.0 13.0 0.00 0.00 0.00 66 1016.3
20260906051603 80 182 5.0 10.0 0.00 0.00 0.00 65 1016.1
20260906050107 80 155 5.0 10.0 0.00 0.00 0.00 63 1016.1
20260906044554 80 162 6.0 11.0 0.00 0.00 0.00 63 1016.2
20260906043101 78 146 5.0 9.0 0.00 0.00 0.00 66 1016.3
20260906041603 81 143 1.0 3.0 0.00 0.00 0.00 61 1016.2
20260906040053 82 131 1.0 2.0 0.00 0.00 0.00 59 1015.9
20260906034617 82 0 0.0 1.0 0.00 0.00 0.00 59 1015.7
20260906033055 82 0 0.0 2.0 0.00 0.00 0.00 58 1015.8
20260906031554 82 0 0.0 2.0 0.00 0.00 0.00 58 1015.6
20260906030059 83 131 1.0 4.0 0.00 0.00 0.00 57 1015.4
20260906024555 83 136 2.0 4.0 0.00 0.00 0.00 57 1015.1
20260906023057 83 110 0.0 3.0 0.00 0.00 0.00 57 1014.8
20260906021603 84 110 2.0 4.0 0.00 0.00 0.00 56 1014.5
20260906020059 84 129 1.0 4.0 0.00 0.00 0.00 56 1014.2
20260906014555 85 139 2.0 4.0 0.00 0.00 0.00 54 1014.1
20260906013103 85 360 2.0 5.0 0.00 0.00 0.00 53 1014.0
20260906011558 86 157 3.0 6.0 0.00 0.00 0.00 52 1013.9
20260906010057 87 360 3.0 10.0 0.00 0.00 0.00 51 1013.8
20260906004555 88 139 5.0 10.0 0.00 0.00 0.00 50 1013.9
20260906003052 89 118 5.0 10.0 0.00 0.00 0.00 49 1013.9
20260906001556 89 140 4.0 12.0 0.00 0.00 0.00 47 1013.7
20260906000106 90 142 5.0 15.0 0.00 0.00 0.00 47 1013.6
20260905234606 90 159 6.0 12.0 0.00 0.00 0.00 46 1013.5
20260905233046 90 151 6.0 12.0 0.00 0.00 0.00 46 1013.5